Location: Recife
(8.0585°S, 34.8848°W)
Time: 13:29:43
(UTC-03:00)

Vanguard 2 - Pass Details

Date: 23 April 2026
Orbit: 553 x 2895 km, 32.9° (Epoch: 13 May)

Event Time Altitude Azimuth Distance (km) Brightness Sun altitude
Exits shadow 03:24:08 36° 228° (SW) 3,639 10.4 -29.4°
Maximum altitude 03:32:27 79° 147° (SSE) 2,288 9.8 -27.4°
Drops below altitude 10° 03:43:21 10° 61° (ENE) 3,848 12.0 -24.7°
Sets 03:45:55 0° 60° (ENE) 4,567 12.7 -24.1°
